When you browse on this site, cookies collect data to enhance your experience and personalize the content and advertising you see.
Visit our Privacy Policy to learn more. By continuing to use the site, you agree to this use of cookies and data.
  • In Hungary
  • List of Countries
  • For 7 days
  • Water Temperature
  • Satellite Maps
  • Weather Map
  • News
  • Weather Widgets
  • user-avatar
    Login

    Hourly Weather Burgos

    Today, 27 June, Thursday

    Time Temperature Precipitation Wind Pressure Humidity
    00:00 +20°C° 0 mm 3 mps 686 mmHg 67%
    01:00 +20°C° 0 mm 3 mps 686 mmHg 63%
    02:00 +20°C° 0 mm 3 mps 686 mmHg 59%
    03:00 +20°C° 0 mm 3 mps 685 mmHg 55%
    04:00 +20°C° 0 mm 3 mps 686 mmHg 54%
    05:00 +20°C° 0 mm 2 mps 686 mmHg 54%
    06:00 +20°C° 0 mm 2 mps 686 mmHg 53%
    07:00 +24°C° 0 mm 3 mps 686 mmHg 45%
    08:00 +27°C° 0 mm 5 mps 687 mmHg 37%
    09:00 +30°C° 0 mm 6 mps 687 mmHg 29%
    10:00 +34°C° 0 mm 7 mps 687 mmHg 24%
    11:00 +36°C° 0 mm 7 mps 688 mmHg 20%
    12:00 +39°C° 0 mm 8 mps 688 mmHg 16%
    13:00 +39°C° 0 mm 9 mps 687 mmHg 15%
    14:00 +40°C° 0 mm 9 mps 687 mmHg 14%
    15:00 +42°C° 0 mm 9 mps 687 mmHg 13%
    16:00 +40°C° 0 mm 8 mps 686 mmHg 16%
    17:00 +38°C° 0 mm 6 mps 686 mmHg 19%
    18:00 +36°C° 0 mm 5 mps 686 mmHg 22%
    19:00 +34°C° 0 mm 5 mps 686 mmHg 25%
    20:00 +30°C° 0 mm 5 mps 686 mmHg 27%
    21:00 +28°C° 0 mm 5 mps 687 mmHg 30%
    22:00 +27°C° 0 mm 4 mps 687 mmHg 31%
    23:00 +26°C° 0 mm 4 mps 687 mmHg 32%

    Tomorrow, 28 June, Friday

    Time Temperature Precipitation Wind Pressure Humidity
    00:00 +24°C° 0 mm 3 mps 687 mmHg 34%
    01:00 +24°C° 0 mm 3 mps 687 mmHg 35%
    02:00 +22°C° 0 mm 3 mps 686 mmHg 36%
    03:00 +21°C° 0 mm 2 mps 686 mmHg 37%
    04:00 +21°C° 0 mm 2 mps 686 mmHg 40%
    05:00 +21°C° 0 mm 2 mps 686 mmHg 43%
    06:00 +21°C° 0 mm 1 mps 686 mmHg 47%
    07:00 +25°C° 0 mm 2 mps 687 mmHg 39%
    08:00 +28°C° 0 mm 2 mps 687 mmHg 32%
    09:00 +31°C° 0 mm 3 mps 688 mmHg 25%
    10:00 +34°C° 0 mm 4 mps 688 mmHg 22%
    11:00 +36°C° 0 mm 4 mps 688 mmHg 20%
    12:00 +38°C° 0 mm 4 mps 688 mmHg 17%
    13:00 +38°C° 0 mm 4 mps 688 mmHg 17%
    14:00 +38°C° 0 mm 4 mps 688 mmHg 16%
    15:00 +40°C° 0 mm 4 mps 687 mmHg 16%
    16:00 +38°C° 0 mm 4 mps 687 mmHg 19%
    17:00 +37°C° 0 mm 4 mps 686 mmHg 22%
    18:00 +36°C° 0 mm 4 mps 686 mmHg 25%
    19:00 +31°C° 0 mm 3 mps 686 mmHg 34%
    20:00 +28°C° 0 mm 3 mps 685 mmHg 43%
    21:00 +25°C° 0 mm 3 mps 685 mmHg 51%
    22:00 +24°C° 0 mm 3 mps 685 mmHg 52%
    23:00 +23°C° 0 mm 2 mps 685 mmHg 53%

    Day after tomorrow, 29 June, Saturday

    Time Temperature Precipitation Wind Pressure Humidity
    00:00 +21°C° 0 mm 2 mps 685 mmHg 53%
    01:00 +21°C° 0 mm 2 mps 684 mmHg 46%
    02:00 +21°C° 0 mm 2 mps 684 mmHg 39%
    03:00 +22°C° 0 mm 1 mps 684 mmHg 32%
    04:00 +22°C° 0 mm 1 mps 684 mmHg 34%
    05:00 +22°C° 0 mm 1 mps 684 mmHg 35%
    06:00 +22°C° 0 mm 1 mps 684 mmHg 36%
    07:00 +26°C° 0 mm 1 mps 685 mmHg 29%
    08:00 +29°C° 0 mm 2 mps 686 mmHg 23%
    09:00 +33°C° 0 mm 3 mps 687 mmHg 17%
    10:00 +34°C° 0 mm 3 mps 687 mmHg 15%
    11:00 +36°C° 0 mm 3 mps 687 mmHg 13%
    12:00 +37°C° 0 mm 2 mps 687 mmHg 12%
    13:00 +38°C° 0 mm 2 mps 687 mmHg 12%
    14:00 +39°C° 0 mm 2 mps 687 mmHg 13%
    15:00 +39°C° 0 mm 2 mps 687 mmHg 13%
    16:00 +38°C° 0 mm 3 mps 687 mmHg 19%
    17:00 +36°C° 0 mm 3 mps 686 mmHg 26%
    18:00 +35°C° 0 mm 3 mps 686 mmHg 32%
    19:00 +30°C° 0 mm 4 mps 686 mmHg 47%
    20:00 +25°C° 0 mm 4 mps 685 mmHg 62%
    21:00 +20°C° 0 mm 5 mps 685 mmHg 77%
    22:00 +19°C° 0 mm 5 mps 685 mmHg 77%
    23:00 +17°C° 0 mm 5 mps 685 mmHg 77%

    30 June, Sunday

    Time Temperature Precipitation Wind Pressure Humidity
    00:00 +16°C° 0 mm 5 mps 685 mmHg 78%
    01:00 +15°C° 0 mm 4 mps 684 mmHg 78%
    02:00 +15°C° 0 mm 4 mps 684 mmHg 78%
    03:00 +14°C° 0 mm 4 mps 684 mmHg 78%
    04:00 +16°C° 0 mm 3 mps 684 mmHg 75%
    05:00 +16°C° 0 mm 3 mps 684 mmHg 72%
    06:00 +17°C° 0 mm 2 mps 685 mmHg 69%
    07:00 +21°C° 0 mm 3 mps 686 mmHg 55%
    08:00 +26°C° 0 mm 3 mps 686 mmHg 41%
    09:00 +30°C° 0 mm 3 mps 687 mmHg 27%
    10:00 +33°C° 0 mm 3 mps 687 mmHg 24%
    11:00 +35°C° 0 mm 3 mps 688 mmHg 22%
    12:00 +37°C° 0 mm 3 mps 688 mmHg 19%
    13:00 +37°C° 0 mm 3 mps 688 mmHg 19%
    14:00 +38°C° 0 mm 3 mps 687 mmHg 19%
    15:00 +39°C° 0 mm 3 mps 687 mmHg 18%
    16:00 +36°C° 0.1 mm 5 mps 687 mmHg 27%
    17:00 +33°C° 0.1 mm 6 mps 686 mmHg 35%
    18:00 +31°C° 0.1 mm 8 mps 686 mmHg 43%
    19:00 +27°C° 0.3 mm 6 mps 686 mmHg 53%
    20:00 +23°C° 0.3 mm 5 mps 686 mmHg 63%
    21:00 +20°C° 0.3 mm 4 mps 686 mmHg 73%
    22:00 +19°C° 0.2 mm 5 mps 685 mmHg 78%
    23:00 +17°C° 0.2 mm 5 mps 685 mmHg 83%

    1 July, Monday

    Time Temperature Precipitation Wind Pressure Humidity
    00:00 +16°C° 0.2 mm 5 mps 685 mmHg 88%
    01:00 +15°C° 0 mm 5 mps 685 mmHg 88%
    02:00 +15°C° 0 mm 5 mps 685 mmHg 89%
    03:00 +14°C° 0 mm 5 mps 685 mmHg 90%
    04:00 +15°C° 0 mm 5 mps 685 mmHg 88%
    05:00 +15°C° 0 mm 5 mps 685 mmHg 86%
    06:00 +15°C° 0 mm 4 mps 686 mmHg 85%
    07:00 +18°C° 0 mm 4 mps 686 mmHg 78%
    08:00 +20°C° 0 mm 5 mps 687 mmHg 71%
    09:00 +22°C° 0 mm 5 mps 687 mmHg 63%
    10:00 +23°C° 0 mm 5 mps 687 mmHg 59%
    11:00 +26°C° 0 mm 5 mps 687 mmHg 55%
    12:00 +27°C° 0 mm 6 mps 687 mmHg 51%
    13:00 +26°C° 0.3 mm 6 mps 687 mmHg 55%
    14:00 +24°C° 0.3 mm 7 mps 686 mmHg 60%
    15:00 +23°C° 0.3 mm 8 mps 686 mmHg 65%
    16:00 +21°C° 1.1 mm 8 mps 686 mmHg 70%
    17:00 +20°C° 1.1 mm 7 mps 685 mmHg 76%
    18:00 +17°C° 1.1 mm 7 mps 685 mmHg 82%
    19:00 +16°C° 1.1 mm 7 mps 685 mmHg 85%
    20:00 +15°C° 1.1 mm 6 mps 686 mmHg 88%
    21:00 +14°C° 1.1 mm 6 mps 686 mmHg 92%
    22:00 +14°C° 0.6 mm 6 mps 686 mmHg 92%
    23:00 +13°C° 0.6 mm 6 mps 686 mmHg 93%

    2 July, Tuesday

    Time Temperature Precipitation Wind Pressure Humidity
    00:00 +13°C° 0.6 mm 6 mps 686 mmHg 93%
    01:00 +13°C° 0.3 mm 6 mps 685 mmHg 93%
    02:00 +13°C° 0.3 mm 6 mps 685 mmHg 94%
    03:00 +13°C° 0.3 mm 6 mps 685 mmHg 94%
    04:00 +13°C° 0 mm 6 mps 685 mmHg 93%
    05:00 +13°C° 0 mm 6 mps 685 mmHg 93%
    06:00 +14°C° 0 mm 6 mps 685 mmHg 92%
    07:00 +15°C° 0 mm 6 mps 685 mmHg 88%
    08:00 +16°C° 0 mm 6 mps 685 mmHg 84%
    09:00 +17°C° 0 mm 6 mps 685 mmHg 80%
    10:00 +18°C° 0 mm 7 mps 685 mmHg 75%
    11:00 +20°C° 0 mm 7 mps 685 mmHg 70%
    12:00 +22°C° 0 mm 7 mps 685 mmHg 65%
    13:00 +22°C° 0.2 mm 8 mps 685 mmHg 66%
    14:00 +22°C° 0.2 mm 8 mps 685 mmHg 66%
    15:00 +22°C° 0.2 mm 9 mps 684 mmHg 67%
    16:00 +21°C° 1.2 mm 8 mps 684 mmHg 72%
    17:00 +20°C° 1.2 mm 7 mps 684 mmHg 77%
    18:00 +19°C° 1.2 mm 6 mps 684 mmHg 82%
    19:00 +17°C° 0 mm 5 mps 684 mmHg 85%
    20:00 +16°C° 0 mm 5 mps 684 mmHg 89%
    21:00 +15°C° 0 mm 5 mps 684 mmHg 93%
    22:00 +14°C° 0 mm 5 mps 684 mmHg 94%
    23:00 +14°C° 0 mm 4 mps 684 mmHg 94%
    Show more